Weather History for Lincoln, NE

Change the Weather History Date:

Monday, July 15, 2013

  Actual Average Record
Temperature  
Mean Temperature 76 °F 78 °F  
Max Temperature 91 °F 89 °F 112 °F (1934)
Min Temperature 60 °F 66 °F 51 °F (1990)
Degree Days  
Heating Degree Days 0 0  
Month to date heating degree days 0 0  
Since 1 June heating degree days 20 16  
Since 1 July heating degree days 0 0  
Cooling Degree Days 11 13  
Month to date cooling degree days 190 188  
Year to date cooling degree days 508 509  
Since 1 June cooling degree days 421 430  
Growing Degree Days 26 (Base 50)    
Moisture  
Dew Point 62 °F    
Average Humidity 65    
Maximum Humidity 90    
Minimum Humidity 40    
Precipitation  
Precipitation 0.00 in 0.11 in 2.04 in (1900)
Month to date precipitation T 1.74  
Year to date precipitation 18.34 16.43  
Snow  
Snow 0.00 in 0.00 in - ()
Month to date snowfall 0.0 0.0  
Since 1 July snowfall 0.0 0.0  
Snow Depth 0.00 in    
Sea Level Pressure  
Sea Level Pressure 30.14 in    
Wind  
Wind Speed 7 mph (ESE)    
Max Wind Speed 17 mph    
Max Gust Speed 23 mph    
Visibility 9 miles    
Events      
T = Trace of Precipitation, MM = Missing Value Source: NWS Daily Summary

Daily Weather History Graph

Daily Weather History Graph

Search for Another Location

Airport:

Trip Planner

Search our weather history database for the weather conditions in past years. The results will help you decide how hot, cold, wet, or windy it might be!

Date:

Astronomy

Jul. 15, 2013 Rise Set
Actual Time 6:08 AM CDT 8:57 PM CDT
Civil Twilight 5:36 AM CDT 9:29 PM CDT
Nautical Twilight 4:55 AM CDT 10:10 PM CDT
Astronomical Twilight 4:08 AM CDT 10:56 PM CDT
Moon 1:32 PM CDT (7/15) 12:07 AM CDT (7/15)
Length of Visible Light 15h 53m
Length of Day
14h 48m
Waxing Crescent, 45% of the Moon is Illuminated
Jul 15
Waxing Crescent
Jul 15
First Quarter
Jul 22
Full
Jul 29
Last Quarter
Aug 6
New

Hourly Weather History & Observations

Time (CDT) Temp. Heat Index Dew Point Humidity Pressure Visibility Wind Dir Wind Speed Gust Speed Precip Events Conditions
12:54 AM 72.0 °F - 60.1 °F 66% 30.14 in 10.0 mi ESE 3.5 mph - N/A   Clear
1:54 AM 71.1 °F - 60.1 °F 68% 30.14 in 10.0 mi ESE 3.5 mph - N/A   Clear
2:54 AM 69.1 °F - 60.1 °F 73% 30.14 in 10.0 mi Calm Calm - N/A   Clear
3:54 AM 64.0 °F - 59.0 °F 84% 30.14 in 9.0 mi Calm Calm - N/A   Clear
4:54 AM 63.0 °F - 59.0 °F 87% 30.14 in 8.0 mi North 5.8 mph - N/A   Clear
5:54 AM 60.1 °F - 57.9 °F 93% 30.16 in 7.0 mi North 5.8 mph - N/A   Clear
6:54 AM 63.0 °F - 59.0 °F 87% 30.17 in 6.0 mi North 5.8 mph - N/A   Clear
7:54 AM 68.0 °F - 61.0 °F 78% 30.18 in 8.0 mi Calm Calm - N/A   Clear
8:54 AM 73.9 °F - 62.1 °F 66% 30.19 in 8.0 mi NW 3.5 mph - N/A   Clear
9:54 AM 80.1 °F 81.7 °F 64.0 °F 58% 30.18 in 8.0 mi Calm Calm - N/A   Clear
10:54 AM 82.0 °F 83.4 °F 64.0 °F 54% 30.18 in 8.0 mi East 5.8 mph - N/A   Clear
11:54 AM 84.0 °F 85.4 °F 64.0 °F 51% 30.17 in 9.0 mi East 8.1 mph - N/A   Scattered Clouds
12:54 PM 86.0 °F 85.7 °F 60.1 °F 41% 30.16 in 10.0 mi ESE 8.1 mph 18.4 mph N/A   Partly Cloudy
1:54 PM 88.0 °F 87.9 °F 61.0 °F 40% 30.14 in 10.0 mi East 11.5 mph 16.1 mph N/A   Scattered Clouds
2:54 PM 87.1 °F 87.0 °F 61.0 °F 41% 30.13 in 10.0 mi East 8.1 mph - N/A   Mostly Cloudy
3:54 PM 89.1 °F 90.0 °F 63.0 °F 42% 30.12 in 10.0 mi SSE 10.4 mph - N/A   Mostly Cloudy
4:54 PM 87.1 °F 87.5 °F 62.1 °F 43% 30.11 in 10.0 mi SE 16.1 mph 20.7 mph N/A   Mostly Cloudy
5:54 PM 88.0 °F 88.7 °F 63.0 °F 43% 30.10 in 10.0 mi SE 11.5 mph 19.6 mph N/A   Mostly Cloudy
6:54 PM 86.0 °F 86.3 °F 62.1 °F 44% 30.10 in 10.0 mi SE 12.7 mph - N/A   Partly Cloudy
7:54 PM 84.0 °F 84.5 °F 62.1 °F 47% 30.11 in 10.0 mi SE 11.5 mph - N/A   Clear
8:54 PM 82.0 °F 83.4 °F 64.0 °F 54% 30.11 in 10.0 mi SE 8.1 mph - N/A   Clear
9:54 PM 80.1 °F 81.7 °F 64.0 °F 58% 30.13 in 10.0 mi SE 6.9 mph - N/A   Clear
10:54 PM 79.0 °F - 64.9 °F 62% 30.14 in 10.0 mi SE 8.1 mph - N/A   Clear
11:54 PM 75.9 °F - 64.9 °F 69% 30.16 in 10.0 mi SSW 9.2 mph - N/A   Partly Cloudy